Location: Unspecified
(0.0000°N, 0.0000°E)
Time: 05:03:39
(UTC+00:00)

ISS - Visible Passes

Search period start: 21 April 2015 00:00
Search period end: 01 May 2015 00:00
Orbit: 395 x 403 km, 51.6° (Epoch: 20 April)

Date Brightness Start Highest point End Pass type
(mag) Time Alt. Az. Time Alt. Az. Time Alt. Az.
27 Apr -0.9 19:12:31 10° NNE 19:13:16 13° NNE 19:13:16 13° NNE visible
28 Apr -0.5 19:53:23 10° NW 19:54:22 18° WNW 19:54:22 18° WNW visible
29 Apr -3.3 18:58:52 10° NNW 19:02:02 57° NE 19:02:54 40° ESE visible
30 Apr -0.4 19:42:15 10° W 19:43:47 12° SW 19:44:00 12° SW visible
